Regional Weather Roundup
Issued by NWS

Home | Current Version | Previous Version | Graphics & Text | Print | Product List | Glossary On
Versions: 1 2 3 4 5 6 7 8 9 10 11 12 13 14 15 16 17 18 19 20 21 22 23 24 25 26 27 28 29 30 31 32 33 34 35 36 37 38 39 40 41 42 43 44 45 46 47 48 49 50
000
ASUS43 KBIS 161110
RWRND

NORTH DAKOTA REGIONAL WEATHER ROUNDUP
NATIONAL WEATHER SERVICE BISMARCK ND
600 AM CDT WED APR 16 2014

NOTE: "FAIR" INDICATES FEW OR NO CLOUDS BELOW 12,000 FEET WITH NO
SIGNIFICANT WEATHER AND/OR OBSTRUCTIONS TO VISIBILITY.


NDZ001>003-009>011-017-161200-
NORTHWEST NORTH DAKOTA

CITY           SKY/WX    TMP DP  RH WIND       PRES   REMARKS
WILLISTON      CLOUDY    23  20  88 E14       29.95R WCI  11
MINOT          LGT SNOW  23  19  85 NE15      29.97R FOG     WCI  10
MINOT AFB      LGT SNOW  23  22  96 E20G25    29.98R VSB 3/4 WCI   8
$$

NDZ018>021-031>035-040>046-161200-
SOUTHWEST NORTH DAKOTA

CITY           SKY/WX    TMP DP  RH WIND       PRES   REMARKS
BISMARCK       CLOUDY    27  21  78 NE15      29.87R WCI  15
DICKINSON      PTCLDY    23  17  78 NE12      29.80R WCI  12
GARRISON         N/A     25  21  85 E12G20    29.91R WCI  14
HETTINGER ARPT MOCLDY    25  17  72 NE17      29.76R WCI  12
$$

NDZ004>008-012>016-024-026-027-054-161200-
NORTHEAST NORTH DAKOTA

CITY           SKY/WX    TMP DP  RH WIND       PRES   REMARKS
GRAND FORKS    CLOUDY    28  13  53 E14       30.00S WCI  17
GRND FRKS AFB  CLOUDY    27  13  55 E10       30.04S WCI  17
DEVILS LAKE    CLOUDY    23  14  68 E14       30.00R WCI  11
$$

NDZ022-023-025-028>030-036>039-047>053-161200-
SOUTHEAST NORTH DAKOTA

CITY           SKY/WX    TMP DP  RH WIND       PRES   REMARKS
FARGO          LGT SNOW  28  24  85 E15       29.97R FOG     WCI  16
JAMESTOWN      CLOUDY    27  24  89 E23G29    29.89S WCI  12
$$




USA.gov is the U.S. government's official web portal to all federal, state and local government web resources and services.